| time (UTC) | temp F | wind direction | speed knots | gust knots | rain 1hr in | rain 24hr in | rain mn in | humidity % | barometer mb |
| 20260510150023 | 64 | 217 | 3.5 | 7.0 | 0.00 | 0.07 | 0.07 | 77 | 1007.9 |
| 20260510144531 | 64 | 180 | 3.5 | 8.7 | 0.00 | 0.07 | 0.07 | 78 | 1008.1 |
| 20260510143022 | 64 | 178 | 5.2 | 10.4 | 0.00 | 0.07 | 0.07 | 78 | 1008.2 |
| 20260510141523 | 64 | 140 | 2.6 | 9.6 | 0.00 | 0.07 | 0.07 | 79 | 1008.4 |
| 20260510140014 | 63 | 170 | 3.5 | 11.3 | 0.00 | 0.07 | 0.07 | 82 | 1008.6 |
| 20260510134510 | 63 | 178 | 4.3 | 9.6 | 0.00 | 0.07 | 0.07 | 83 | 1008.9 |
| 20260510133007 | 62 | 198 | 4.3 | 8.7 | 0.00 | 0.07 | 0.07 | 83 | 1009.1 |
| 20260510131505 | 62 | 185 | 3.5 | 6.1 | 0.00 | 0.07 | 0.07 | 84 | 1009.2 |
| 20260510130004 | 62 | 162 | 4.3 | 7.0 | 0.00 | 0.07 | 0.07 | 83 | 1009.4 |
| 20260510124506 | 63 | 191 | 2.6 | 5.2 | 0.00 | 0.07 | 0.07 | 84 | 1009.5 |
| 20260510123006 | 63 | 162 | 3.5 | 6.1 | 0.00 | 0.07 | 0.07 | 83 | 1009.6 |
| 20260510121502 | 62 | 105 | 1.7 | 4.3 | 0.00 | 0.07 | 0.07 | 83 | 1009.7 |
| 20260510120001 | 62 | 159 | 0.0 | 0.9 | 0.00 | 0.07 | 0.07 | 82 | 1009.8 |
| 20260510114501 | 61 | 169 | 0.9 | 3.5 | 0.00 | 0.07 | 0.07 | 82 | 1009.9 |
| 20260510113121 | 61 | 259 | 0.0 | 0.0 | 0.00 | 0.07 | 0.07 | 82 | 1010.0 |
| 20260510111601 | 61 | 213 | 0.0 | 3.5 | 0.01 | 0.07 | 0.07 | 82 | 1010.1 |
| 20260510110100 | 61 | 217 | 0.0 | 2.6 | 0.01 | 0.07 | 0.07 | 84 | 1010.2 |
| 20260510104603 | 61 | 257 | 0.0 | 2.6 | 0.01 | 0.07 | 0.07 | 84 | 1010.3 |
| 20260510103102 | 60 | 145 | 0.9 | 1.7 | 0.02 | 0.07 | 0.07 | 82 | 1010.3 |
| 20260510101557 | 60 | 144 | 0.0 | 1.7 | 0.01 | 0.06 | 0.06 | 85 | 1010.5 |
| 20260510100057 | 60 | 95 | 1.7 | 4.3 | 0.01 | 0.06 | 0.06 | 87 | 1010.4 |
| 20260510094555 | 60 | 61 | 0.9 | 3.5 | 0.01 | 0.06 | 0.06 | 87 | 1010.2 |
| 20260510093105 | 60 | 92 | 0.9 | 2.6 | 0.01 | 0.06 | 0.06 | 87 | 1010.4 |
| 20260510091555 | 59 | 86 | 1.7 | 2.6 | 0.01 | 0.06 | 0.06 | 86 | 1010.4 |
| 20260510090051 | 58 | 109 | 0.9 | 2.6 | 0.02 | 0.06 | 0.06 | 88 | 1010.5 |
| 20260510084552 | 58 | 135 | 0.9 | 3.5 | 0.02 | 0.06 | 0.06 | 89 | 1010.6 |
| 20260510083051 | 58 | 146 | 0.9 | 2.6 | 0.02 | 0.05 | 0.05 | 90 | 1010.6 |
| 20260510081609 | 58 | 151 | 0.9 | 3.5 | 0.02 | 0.05 | 0.05 | 91 | 1010.6 |
| 20260510080049 | 57 | 159 | 0.0 | 5.2 | 0.02 | 0.04 | 0.04 | 90 | 1010.5 |
| 20260510074544 | 57 | 170 | 1.7 | 5.2 | 0.02 | 0.04 | 0.04 | 91 | 1010.6 |
| 20260510073053 | 57 | 162 | 2.6 | 7.0 | 0.02 | 0.02 | 0.02 | 91 | 1010.9 |
| 20260510071540 | 57 | 158 | 1.7 | 4.3 | 0.02 | 0.02 | 0.02 | 91 | 1010.7 |
| 20260510070040 | 57 | 128 | 1.7 | 5.2 | 0.01 | 0.02 | 0.02 | 91 | 1010.7 |
| 20260510064551 | 57 | 178 | 2.6 | 5.2 | 0.01 | 0.02 | 0.02 | 91 | 1010.9 |
| 20260510063042 | 57 | 145 | 1.7 | 6.1 | 0.00 | 0.01 | 0.01 | 90 | 1010.9 |
| 20260510061536 | 57 | 146 | 1.7 | 5.2 | 0.00 | 0.01 | 0.01 | 90 | 1011.0 |
| 20260510060042 | 57 | 166 | 0.9 | 3.5 | 0.00 | 0.01 | 0.01 | 89 | 1010.9 |
| 20260510054533 | 57 | 209 | 0.9 | 3.5 | 0.00 | 0.01 | 0.01 | 89 | 1010.7 |
| 20260510053039 | 57 | 185 | 1.7 | 6.1 | 0.00 | 0.01 | 0.01 | 89 | 1010.8 |
| 20260510051608 | 57 | 162 | 2.6 | 7.8 | 0.00 | 0.01 | 0.01 | 89 | 1010.7 |
| 20260510050112 | 57 | 138 | 2.6 | 7.8 | 0.00 | 0.01 | 0.01 | 88 | 1010.8 |
| 20260510044607 | 57 | 199 | 1.7 | 7.8 | 0.00 | 0.01 | 0.01 | 87 | 1010.9 |
| 20260510043100 | 57 | 188 | 4.3 | 11.3 | 0.01 | 0.01 | 0.01 | 84 | 1010.8 |
| 20260510041602 | 58 | 178 | 6.1 | 10.4 | 0.01 | 0.01 | 0.01 | 84 | 1010.8 |
| 20260510040051 | 58 | 174 | 2.6 | 8.7 | 0.01 | 0.01 | 0.01 | 84 | 1010.9 |
| 20260510034549 | 59 | 192 | 5.2 | 8.7 | 0.01 | 0.01 | 0.01 | 83 | 1010.8 |
| 20260510033058 | 60 | 165 | 4.3 | 7.0 | 0.00 | 0.00 | 0.00 | 80 | 1010.7 |
| 20260510031543 | 60 | 175 | 4.3 | 7.0 | 0.00 | 0.00 | 0.00 | 76 | 1010.6 |
| 20260510030046 | 60 | 178 | 5.2 | 9.6 | 0.00 | 0.00 | 0.00 | 75 | 1010.6 |
| 20260510024540 | 60 | 184 | 3.5 | 6.1 | 0.00 | 0.00 | 0.00 | 75 | 1010.4 |
| 20260510023039 | 60 | 204 | 1.7 | 5.2 | 0.00 | 0.00 | 0.00 | 75 | 1010.2 |
| 20260510021539 | 61 | 240 | 1.7 | 6.1 | 0.00 | 0.00 | 0.00 | 75 | 1010.0 |
| 20260510020038 | 61 | 210 | 2.6 | 8.7 | 0.00 | 0.00 | 0.00 | 74 | 1009.9 |
| 20260510014540 | 61 | 197 | 2.6 | 6.1 | 0.00 | 0.00 | 0.00 | 75 | 1009.7 |
| 20260510013038 | 61 | 168 | 3.5 | 7.0 | 0.00 | 0.00 | 0.00 | 78 | 1009.7 |
| 20260510011536 | 61 | 153 | 2.6 | 5.2 | 0.00 | 0.00 | 0.00 | 81 | 1009.6 |
| 20260510010034 | 61 | 194 | 0.9 | 2.6 | 0.00 | 0.00 | 0.00 | 83 | 1009.5 |
| 20260510004535 | 61 | 177 | 1.7 | 3.5 | 0.00 | 0.00 | 0.00 | 83 | 1009.6 |
| 20260510003038 | 60 | 159 | 0.0 | 0.0 | 0.00 | 0.00 | 0.00 | 83 | 1009.5 |
| 20260510001526 | 60 | 120 | 0.0 | 0.0 | 0.00 | 0.00 | 0.00 | 82 | 1009.5 |
| 20260510000024 | 60 | 98 | 0.0 | 0.0 | 0.00 | 0.00 | 0.00 | 82 | 1009.7 |
| 20260509234531 | 61 | 98 | 0.0 | 1.7 | 0.00 | 0.00 | 0.00 | 82 | 1009.9 |
| 20260509233021 | 61 | 81 | 0.9 | 2.6 | 0.00 | 0.00 | 0.00 | 82 | 1010.0 |
| 20260509231519 | 61 | 67 | 0.9 | 2.6 | 0.00 | 0.00 | 0.00 | 82 | 1010.1 |
| 20260509230021 | 61 | 78 | 0.0 | 0.9 | 0.00 | 0.00 | 0.00 | 81 | 1010.2 |
| 20260509224516 | 62 | 78 | 0.9 | 3.5 | 0.00 | 0.00 | 0.00 | 81 | 1010.2 |
| 20260509223013 | 62 | 63 | 0.9 | 3.5 | 0.00 | 0.00 | 0.00 | 80 | 1010.3 |
| 20260509221510 | 63 | 52 | 0.0 | 0.0 | 0.00 | 0.00 | 0.00 | 78 | 1010.4 |
| 20260509220010 | 63 | 101 | 0.0 | 0.0 | 0.00 | 0.00 | 0.00 | 77 | 1010.4 |
| 20260509214508 | 64 | 101 | 0.0 | 0.0 | 0.00 | 0.00 | 0.00 | 77 | 1010.4 |
| 20260509213008 | 63 | 207 | 0.0 | 2.6 | 0.00 | 0.00 | 0.00 | 76 | 1010.4 |
| 20260509211507 | 63 | 126 | 0.0 | 1.7 | 0.00 | 0.00 | 0.00 | 77 | 1010.4 |
| 20260509210015 | 63 | 95 | 0.9 | 2.6 | 0.00 | 0.00 | 0.00 | 77 | 1010.4 |
| 20260509204504 | 64 | 150 | 0.0 | 0.0 | 0.00 | 0.00 | 0.00 | 76 | 1010.4 |
| 20260509203004 | 64 | 150 | 0.0 | 0.0 | 0.00 | 0.00 | 0.00 | 74 | 1010.4 |
| 20260509201504 | 65 | 150 | 0.0 | 0.0 | 0.00 | 0.00 | 0.00 | 74 | 1010.4 |
| 20260509200004 | 65 | 150 | 0.0 | 1.7 | 0.00 | 0.00 | 0.00 | 71 | 1010.5 |
| 20260509194524 | 65 | 150 | 0.9 | 2.6 | 0.00 | 0.00 | 0.00 | 71 | 1010.4 |
| 20260509193033 | 66 | 131 | 0.9 | 3.5 | 0.00 | 0.00 | 0.00 | 71 | 1010.3 |
| 20260509191524 | 67 | 105 | 0.9 | 2.6 | 0.00 | 0.00 | 0.00 | 69 | 1010.1 |
| 20260509190023 | 68 | 69 | 0.0 | 1.7 | 0.00 | 0.00 | 0.00 | 68 | 1010.0 |
| 20260509184530 | 69 | 69 | 0.0 | 1.7 | 0.00 | 0.00 | 0.00 | 62 | 1010.0 |
| 20260509183022 | 71 | 69 | 0.0 | 1.7 | 0.00 | 0.00 | 0.00 | 60 | 1009.9 |
| 20260509181521 | 72 | 64 | 0.9 | 2.6 | 0.00 | 0.00 | 0.00 | 58 | 1009.9 |
| 20260509180021 | 73 | 53 | 1.7 | 3.5 | 0.00 | 0.00 | 0.00 | 57 | 1009.9 |
| 20260509174520 | 74 | 70 | 1.7 | 2.6 | 0.00 | 0.00 | 0.00 | 52 | 1010.1 |
| 20260509173021 | 74 | 291 | 0.0 | 1.7 | 0.00 | 0.00 | 0.00 | 48 | 1010.1 |
| 20260509171527 | 74 | 270 | 0.9 | 1.7 | 0.00 | 0.00 | 0.00 | 49 | 1010.1 |
| 20260509170017 | 74 | 211 | 0.9 | 3.5 | 0.00 | 0.00 | 0.00 | 48 | 1010.2 |
| 20260509164519 | 74 | 242 | 1.7 | 4.3 | 0.00 | 0.00 | 0.00 | 49 | 1010.3 |
| 20260509163016 | 74 | 307 | 1.7 | 5.2 | 0.00 | 0.00 | 0.00 | 46 | 1010.3 |
| 20260509161514 | 75 | 238 | 2.6 | 6.1 | 0.00 | 0.00 | 0.00 | 46 | 1010.3 |
| 20260509160017 | 75 | 263 | 3.5 | 7.0 | 0.00 | 0.00 | 0.00 | 46 | 1010.6 |
| 20260509154512 | 76 | 34 | 1.7 | 6.1 | 0.00 | 0.00 | 0.00 | 45 | 1010.5 |
| 20260509153010 | 76 | 308 | 0.9 | 4.3 | 0.00 | 0.00 | 0.00 | 46 | 1010.7 |
| 20260509151508 | 76 | 210 | 2.6 | 5.2 | 0.00 | 0.00 | 0.00 | 48 | 1010.9 |